Showing default

OPS 9322 (IDSCS 9), 2649

Orbit data source: Space-Track

OPS 9322 (IDSCS 9), 2649 is a payload satellite owned by USAF SSD (US) in GEO that was launched on Wed, 18 Jan 1967 UTC via a TITAN IIIC launch vehicle from the Air Force Eastern Test Range (AFETR). Payload-class satellites include a variety of spacecraft equipped with specific instruments for various scientific and technological missions. These include communications satellites like Starlink; space stations such as the ISS; scientific satellites like the Hubble; Earth observation satellites from companies like Planet Labs, Umbra, and HawkEye 360; GPS; miniature CubeSats for education and research; and military/defense satellites.

Not visible in the next 10 days
Identifier
2649, 1967-003B
Orbit
GEO
Last TLE update
19 hours ago
Origin
Manufacturer
Philco-Ford WDL
Mission
Non-operational Defense Communications
Bus & Motor
IDCSP, Unknown motor
Mass
45 kg wet, 45 kg dry
Launch date (UTC)
1967-01-18 (58 years ago)
Launch vehicle
TITAN IIIC
Launch site
Air Force Eastern Test Range (AFETR)
Object type
Payload
Rocket body
Debris
Shape & HBR
Ico Poly, 0.9 m
Radar Cross Section
0.926 m², Medium (>0.1 m² and < 1m²)

Expand to show TLE details & history

TLE from 19 hours ago
0 OPS 9322 (IDSCS 9)
1 02649U 67003B   25172.79364552 -.00000085  00000-0  00000-0 0  9999
2 02649   7.6315  47.8175 0034986 107.5114  70.0879  1.08282058135538
Epoch: 2025-06-21T19:02Z
TLE epoch observation values (Epoch: 2025-06-21T19:02:50.972Z)
Latitude
0.25602°
Longitude
29.87828°
Altitude
33,633.347 km
Speed
3.158 km/s
True Right ascension
15h 03m 16s
True Declination
0° 15' 21"
Sunlit
Object was in daylight at epoch
Visualization orbit readout
Latitude
5.49353°
Longitude
-13.91243°
Altitude
33,554.507 km
Speed
3.164 km/s
Apparent Right ascension
12h 17m 25s
Apparent Declination
0° 19' 32"
Sunlit
Object is in daylight
Visualization observer readout
Local Sidereal Time
01:34:23
Azimuth
28.721° NE
Elevation
-46.7°
Doppler factor
1
Orbital elements
Apogee altitude
33,821.872 km
Perigee altitude
33,541.565 km
Semi-major axis
40,059.855 km
Eccentricity
0.0035
Inclination
7.6315°
RAAN
47.8175°
Arg. of periapsis
107.5114°
True anomaly
Unknown
Mean anomaly
70.0879°
Eccentric anomaly
Unknown
Mean motion
0.27069 °/min
Orbital period
1,329.91 mins
BSTAR
0
Loading historical data...
2649 neighbors
Loading maneuver chart data...
Loading SW <> Apogee altitude chart data...
Loading historical data...
Loading historical data...
Loading historical data...
Loading historical data...
Loading historical data...
Loading historical data...
Loading historical data...

OPS 9322 (IDSCS 9) Visibility

Observer location: undefined°, undefined°

OPS 9322 (IDSCS 9) is likely not visible in the next few days
Span
Click to sort rows by Start time (UTC) header in descending order
Start Az.
Max El. time (UTC)
Max El. Az.
Max El.
End time (UTC)
End Az.
|